logo meteosicilia

Diretta Meteo Napoli-Capodichino, Italiadomenica 21 luglio ore 00:50

Mappa
Sereno 26 °C Sereno 24 Ore: T.min 25 T.max 31
Ponente Nord Km/h 3.7 Punto di rugiada: 23 °C Umidità: 83% Visibilità: 10 Km
Il sole sorge alle: 05:48 Il sole tramonta alle: 20:30
21 Luglio 2024 00:50 tempo osservato: Sereno Sereno 26 83 1010 vento: Nord N 3.7
21 Luglio 2024 00:20 tempo osservato: Sereno Sereno 26 83 1010 vento: Nord N 3.7
20 Luglio 2024 23:50 tempo osservato: Sereno Sereno 26 78 1010 vento: Nord N 3.7
20 Luglio 2024 23:20 tempo osservato: Sereno Sereno 27 74 1010 vento: Nord N 3.7
20 Luglio 2024 22:50 tempo osservato: Sereno Sereno 27 74 1010 vento: Nord N 3.7
20 Luglio 2024 22:20 tempo osservato: Sereno Sereno 27 74 1010 vento: Nord N 3.7
20 Luglio 2024 21:50 tempo osservato: Sereno Sereno 27 74 1010 vento: Nord N 3.7
20 Luglio 2024 21:20 tempo osservato: Sereno Sereno 27 74 1009 vento: Nord N 3.7
20 Luglio 2024 20:50 tempo osservato: Sereno Sereno 27 78 1009 vento: Nord N 3.7
20 Luglio 2024 20:20 tempo osservato: Sereno Sereno 28 74 1009 vento: Nord S 9.3
20 Luglio 2024 19:50 tempo osservato: Poco Nuvoloso Poco Nuvoloso 28 78 1009 vento: Nord S 9.3
20 Luglio 2024 19:20 tempo osservato: Sereno Sereno 29 70 1009 vento: Nord S 9.3
20 Luglio 2024 18:50 tempo osservato: Sereno Sereno 29 70 1009 vento: Nord S/SO 11.1
20 Luglio 2024 18:20 tempo osservato: Poco Nuvoloso Poco Nuvoloso 30 66 1009 vento: Nord S 11.1
20 Luglio 2024 17:50 tempo osservato: Poco Nuvoloso Poco Nuvoloso 30 66 1009 vento: Nord S 11.1
20 Luglio 2024 17:20 tempo osservato: Poco Nuvoloso Poco Nuvoloso 30 62 1009 vento: Nord S/SO 14.8
20 Luglio 2024 16:50 tempo osservato: Sereno Sereno 30 62 1010 vento: Nord S/SO 14.8
20 Luglio 2024 16:20 tempo osservato: Sereno Sereno 31 55 1010 vento: Nord S 14.8
20 Luglio 2024 15:50 tempo osservato: Sereno Sereno 30 58 1010 vento: Nord S 14.8
20 Luglio 2024 15:20 tempo osservato: Poco Nuvoloso Poco Nuvoloso 30 62 1010 vento: Nord S 14.8
20 Luglio 2024 14:50 tempo osservato: Sereno Sereno 30 62 1010 vento: Nord S/SO 16.7
20 Luglio 2024 14:20 tempo osservato: Sereno Sereno 30 62 1010 vento: Nord S/SO 18.5
20 Luglio 2024 13:50 tempo osservato: Sereno Sereno 30 62 1011 vento: Nord S/SO 16.7
20 Luglio 2024 13:20 tempo osservato: Sereno Sereno 30 58 1011 vento: Nord S 14.8
20 Luglio 2024 12:50 tempo osservato: Sereno Sereno 30 58 1011 vento: Nord S/SO 13
20 Luglio 2024 12:20 tempo osservato: Sereno Sereno 30 62 1011 vento: Nord S/SO 14.8
20 Luglio 2024 11:50 tempo osservato: Sereno Sereno 30 58 1011 vento: Nord S/SO 11.1
20 Luglio 2024 11:20 tempo osservato: Sereno Sereno 31 43 1011 vento: Nord S 9.3
20 Luglio 2024 10:50 tempo osservato: Sereno Sereno 30 58 1011 vento: Nord SO 9.3
20 Luglio 2024 10:20 tempo osservato: Sereno Sereno 29 58 1011 vento: Nord S 7.4
20 Luglio 2024 09:50 tempo osservato: Poco Nuvoloso Poco Nuvoloso 29 62 1011 vento: Nord O 9.3
20 Luglio 2024 09:20 tempo osservato: Poco Nuvoloso Poco Nuvoloso 28 65 1011 vento: Nord SO 7.4
20 Luglio 2024 08:50 tempo osservato: Nuvoloso Nuvoloso 28 69 1011 vento: Nord N 3.7
20 Luglio 2024 08:20 tempo osservato: Nuvoloso Nuvoloso 27 74 1011 vento: Nord N 3.7
20 Luglio 2024 07:50 tempo osservato: Nuvoloso Nuvoloso 26 73 1011 vento: Nord N 5.5
20 Luglio 2024 07:20 tempo osservato: Nuvoloso Nuvoloso 25 78 1011 vento: Nord N 5.5
20 Luglio 2024 06:50 tempo osservato: Molto Nuvoloso Molto Nuvoloso 25 78 1011 vento: Nord N 5.5
20 Luglio 2024 06:20 tempo osservato: Molto Nuvoloso Molto Nuvoloso 25 78 1011 vento: Nord N 5.5
20 Luglio 2024 05:50 tempo osservato: Nuvoloso Nuvoloso 25 78 1011 vento: Nord N 3.7
20 Luglio 2024 05:20 tempo osservato: Sereno Sereno 25 78 1011 vento: Nord N 5.5
20 Luglio 2024 04:50 tempo osservato: Sereno Sereno 25 78 1011 vento: Nord N 5.5
20 Luglio 2024 04:20 tempo osservato: Sereno Sereno 25 83 1011 vento: Nord N 5.5
20 Luglio 2024 03:50 tempo osservato: Sereno Sereno 26 83 1012 vento: Nord N 5.5
20 Luglio 2024 03:20 tempo osservato: Sereno Sereno 25 88 1012 vento: Nord O 7.4
20 Luglio 2024 02:50 tempo osservato: Sereno Sereno 26 88 1012 vento: Nord S/SO 7.4
20 Luglio 2024 02:20 tempo osservato: Sereno Sereno 26 88 1012 vento: Nord N 5.5
20 Luglio 2024 01:50 tempo osservato: Sereno Sereno 26 83 1012 vento: Nord N 5.5